| time (UTC) | temp F | wind direction | speed MPH | gust MPH | rain 1hr in | rain 24hr in | rain mn in | humidity % | barometer mb |
| 20260505234525 | 50 | 309 | 3.0 | 8.0 | 0.00 | 0.98 | 0.02 | 96 | 1007.8 |
| 20260505233017 | 50 | 313 | 5.0 | 9.0 | 0.01 | 0.98 | 0.02 | 96 | 1007.8 |
| 20260505231520 | 50 | 300 | 5.0 | 10.0 | 0.02 | 0.98 | 0.02 | 96 | 1007.8 |
| 20260505230022 | 50 | 304 | 4.0 | 9.0 | 0.02 | 0.98 | 0.02 | 96 | 1007.8 |
| 20260505224518 | 50 | 321 | 3.0 | 6.0 | 0.04 | 0.98 | 0.02 | 96 | 1007.8 |
| 20260505223017 | 50 | 308 | 5.0 | 13.0 | 0.04 | 0.97 | 0.02 | 97 | 1007.7 |
| 20260505221529 | 50 | 306 | 6.0 | 14.0 | 0.05 | 0.96 | 0.01 | 96 | 1007.7 |
| 20260505220016 | 50 | 311 | 8.0 | 15.0 | 0.06 | 0.95 | 0.00 | 96 | 1007.8 |
| 20260505214546 | 50 | 309 | 8.0 | 13.0 | 0.05 | 0.94 | 0.94 | 96 | 1007.7 |
| 20260505213018 | 50 | 275 | 6.0 | 12.0 | 0.07 | 0.93 | 0.93 | 96 | 1007.8 |
| 20260505211606 | 51 | 289 | 6.0 | 11.0 | 0.07 | 0.91 | 0.91 | 96 | 1008.0 |
| 20260505210004 | 51 | 294 | 7.0 | 11.0 | 0.09 | 0.90 | 0.90 | 96 | 1008.1 |
| 20260505204505 | 51 | 309 | 5.0 | 11.0 | 0.09 | 0.90 | 0.89 | 96 | 1008.2 |
| 20260505203005 | 51 | 305 | 6.0 | 10.0 | 0.09 | 0.87 | 0.86 | 97 | 1008.1 |
| 20260505201517 | 51 | 290 | 3.0 | 8.0 | 0.12 | 0.85 | 0.84 | 97 | 1008.0 |
| 20260505200033 | 51 | 295 | 2.0 | 7.0 | 0.12 | 0.82 | 0.81 | 97 | 1007.9 |
| 20260505194518 | 51 | 301 | 1.0 | 9.0 | 0.13 | 0.83 | 0.80 | 97 | 1007.7 |
| 20260505193058 | 51 | 303 | 3.0 | 9.0 | 0.11 | 0.80 | 0.76 | 96 | 1007.5 |
| 20260505191511 | 51 | 291 | 4.0 | 8.0 | 0.09 | 0.76 | 0.72 | 96 | 1007.4 |
| 20260505190009 | 51 | 297 | 3.0 | 10.0 | 0.07 | 0.73 | 0.69 | 96 | 1007.3 |
| 20260505184509 | 51 | 306 | 5.0 | 10.0 | 0.07 | 0.71 | 0.67 | 96 | 1007.3 |
| 20260505183008 | 51 | 304 | 5.0 | 9.0 | 0.08 | 0.69 | 0.65 | 96 | 1007.0 |
| 20260505181507 | 51 | 306 | 6.0 | 11.0 | 0.07 | 0.68 | 0.64 | 96 | 1006.9 |
| 20260505180009 | 51 | 308 | 8.0 | 12.0 | 0.07 | 0.66 | 0.62 | 96 | 1007.0 |
| 20260505174517 | 51 | 305 | 5.0 | 10.0 | 0.06 | 0.64 | 0.60 | 96 | 1007.0 |
| 20260505173019 | 51 | 305 | 6.0 | 9.0 | 0.03 | 0.61 | 0.56 | 96 | 1007.1 |
| 20260505171522 | 51 | 314 | 6.0 | 10.0 | 0.03 | 0.61 | 0.56 | 96 | 1007.0 |
| 20260505170019 | 51 | 315 | 5.0 | 11.0 | 0.02 | 0.59 | 0.55 | 96 | 1007.1 |
| 20260505164512 | 52 | 303 | 5.0 | 10.0 | 0.02 | 0.65 | 0.54 | 96 | 1007.2 |
| 20260505163051 | 52 | 310 | 7.0 | 13.0 | 0.03 | 0.65 | 0.54 | 96 | 1007.1 |
| 20260505161507 | 52 | 325 | 4.0 | 11.0 | 0.04 | 0.64 | 0.54 | 96 | 1007.1 |
| 20260505153004 | 52 | 300 | 5.0 | 15.0 | 0.08 | 0.64 | 0.51 | 96 | 1006.8 |
| 20260505151519 | 52 | 325 | 8.0 | 14.0 | 0.09 | 0.62 | 0.50 | 96 | 1006.8 |
| 20260505124612 | 53 | 355 | 5.0 | 15.0 | 0.05 | 0.46 | 0.24 | 96 | 1006.7 |
| 20260505123018 | 53 | 308 | 7.0 | 13.0 | 0.05 | 0.44 | 0.22 | 96 | 1006.8 |
| 20260505121517 | 53 | 28 | 7.0 | 15.0 | 0.04 | 0.43 | 0.20 | 96 | 1006.7 |
| 20260505120017 | 53 | 347 | 8.0 | 18.0 | 0.04 | 0.42 | 0.20 | 96 | 1006.8 |
| 20260505114513 | 54 | 327 | 9.0 | 15.0 | 0.04 | 0.46 | 0.18 | 96 | 1006.8 |
| 20260505113012 | 53 | 335 | 6.0 | 13.0 | 0.04 | 0.45 | 0.17 | 96 | 1006.8 |
| 20260505111513 | 53 | 318 | 5.0 | 13.0 | 0.04 | 0.44 | 0.17 | 96 | 1007.0 |
| 20260505101504 | 54 | 15 | 7.0 | 13.0 | 0.05 | 0.40 | 0.13 | 96 | 1007.3 |
| 20260505100104 | 54 | 10 | 7.0 | 13.0 | 0.05 | 0.39 | 0.12 | 96 | 1007.4 |
| 20260505094602 | 53 | 34 | 4.0 | 12.0 | 0.05 | 0.38 | 0.10 | 96 | 1007.3 |
| 20260505093109 | 53 | 334 | 4.0 | 12.0 | 0.03 | 0.36 | 0.09 | 96 | 1007.4 |
| 20260505091517 | 53 | 338 | 4.0 | 9.0 | 0.04 | 0.35 | 0.08 | 96 | 1007.4 |
| 20260505090013 | 53 | 333 | 4.0 | 10.0 | 0.03 | 0.35 | 0.07 | 96 | 1007.4 |
| 20260505084518 | 54 | 355 | 4.0 | 11.0 | 0.03 | 0.33 | 0.06 | 96 | 1007.5 |
| 20260505083014 | 54 | 5 | 4.0 | 11.0 | 0.03 | 0.32 | 0.05 | 96 | 1007.4 |
| 20260505081509 | 54 | 37 | 6.0 | 9.0 | 0.03 | 0.31 | 0.04 | 96 | 1007.5 |
| 20260505080007 | 54 | 10 | 5.0 | 12.0 | 0.03 | 0.31 | 0.03 | 96 | 1007.5 |
| 20260505074504 | 54 | 5 | 6.0 | 11.0 | 0.02 | 0.30 | 0.02 | 96 | 1007.5 |
| 20260505073008 | 54 | 355 | 6.0 | 10.0 | 0.02 | 0.28 | 0.02 | 96 | 1007.5 |
| 20260505071511 | 54 | 336 | 5.0 | 10.0 | 0.01 | 0.28 | 0.01 | 96 | 1007.6 |
| 20260505070004 | 54 | 355 | 6.0 | 11.0 | 0.00 | 0.28 | 0.00 | 96 | 1007.6 |
| 20260505064609 | 54 | 9 | 6.0 | 11.0 | 0.00 | 0.28 | 0.00 | 96 | 1007.6 |
| 20260505063017 | 54 | 24 | 5.0 | 11.0 | 0.00 | 0.28 | 0.00 | 96 | 1007.8 |
| 20260505061516 | 55 | 13 | 4.0 | 9.0 | 0.00 | 0.28 | 0.00 | 96 | 1007.7 |
| 20260505060017 | 55 | 5 | 5.0 | 11.0 | 0.00 | 0.28 | 0.00 | 96 | 1007.7 |
| 20260505054515 | 55 | 5 | 4.0 | 9.0 | 0.00 | 0.28 | 0.00 | 96 | 1007.8 |
| 20260505053012 | 54 | 346 | 2.0 | 9.0 | 0.00 | 0.28 | 0.00 | 96 | 1007.7 |
| 20260505051512 | 54 | 22 | 2.0 | 8.0 | 0.00 | 0.28 | 0.00 | 96 | 1007.8 |
| 20260505041514 | 54 | 344 | 4.0 | 10.0 | 0.00 | 0.28 | 0.00 | 96 | 1008.1 |
| 20260505040007 | 54 | 347 | 4.0 | 6.0 | 0.00 | 0.28 | 0.00 | 96 | 1008.1 |
| 20260505034507 | 54 | 333 | 3.0 | 8.0 | 0.00 | 0.28 | 0.00 | 96 | 1008.2 |
| 20260505033006 | 54 | 355 | 3.0 | 8.0 | 0.00 | 0.28 | 0.00 | 96 | 1008.3 |
| 20260505031502 | 54 | 336 | 4.0 | 9.0 | 0.00 | 0.28 | 0.00 | 96 | 1008.3 |
| 20260505030012 | 54 | 355 | 3.0 | 9.0 | 0.00 | 0.28 | 0.00 | 96 | 1008.4 |
| 20260505024502 | 54 | 338 | 5.0 | 9.0 | 0.00 | 0.28 | 0.00 | 96 | 1008.6 |
| 20260505023005 | 54 | 12 | 2.0 | 6.0 | 0.00 | 0.28 | 0.00 | 96 | 1008.7 |
| 20260505021603 | 54 | 343 | 2.0 | 6.0 | 0.00 | 0.28 | 0.00 | 96 | 1009.0 |
| 20260505014601 | 54 | 350 | 3.0 | 6.0 | 0.00 | 0.28 | 0.00 | 96 | 1009.4 |
| 20260505013012 | 54 | 355 | 2.0 | 6.0 | 0.00 | 0.28 | 0.00 | 96 | 1009.4 |
| 20260505011512 | 54 | 350 | 4.0 | 8.0 | 0.00 | 0.28 | 0.00 | 95 | 1009.5 |
| 20260505010010 | 54 | 15 | 4.0 | 6.0 | 0.00 | 0.28 | 0.00 | 95 | 1009.7 |
| 20260505004509 | 54 | 348 | 2.0 | 9.0 | 0.00 | 0.28 | 0.00 | 95 | 1009.9 |
| 20260505003007 | 54 | 346 | 4.0 | 8.0 | 0.00 | 0.28 | 0.00 | 95 | 1009.8 |
| 20260505001506 | 54 | 336 | 2.0 | 6.0 | 0.00 | 0.28 | 0.00 | 95 | 1009.9 |
| 20260505000006 | 54 | 341 | 2.0 | 6.0 | 0.00 | 0.28 | 0.00 | 95 | 1009.9 |